User: anonymous   Login
Location: Unspecified
(0.0000°N, 0.0000°E)
Time: 22:18:19
(UTC+00:00)
Language:

STARLINK-30613 - Orbit

View from above orbital plane
View from above orbital plane
View from above satellite
View from above satellite

Ground track
Ground track

The orbit is defined by the following mean orbital elements,

1 58077U          26145.30198093 +.00000000 +00000-0 +15107-4 0 00009
2 58077  43.0026   5.1431 0001195 271.0235  89.0480 15.27581395    09
Epoch (UTC): 25 May 2026 07:14:51
Eccentricity: 0.0001195
inclination: 43.0026°
perigee height: 482 km
apogee height: 484 km
right ascension of ascending node: 5.1431°
argument of perigee: 271.0235°
revolutions per day: 15.27581395
mean anomaly at epoch: 89.0480°

The dashed part of the orbit path shows where the satellite is in the earth's shadow,  

DLR